Weather in Shulka

Russia / Mari El Republic     56°56′26″N   48°09′50″E
temp.,
°C
wind,
m/s
gust,
m/s
humid.,
%
clouds,
%
prec.,
mm/h
press.,
hPa
HPBL,
m
1 march, mon
mon100:00−19n339978 0.0 101825
03:00−21n339942 0.0 101926
06:00−22n23980 0.0 102020
09:00−18w11940 0.0 102172
12:00−13wsw349052 0.0 1020327
15:00−10sw469376 0.0 1018369
18:00−10sw51096100 0.0 1015322
21:00−9ssw61295100 0.1 1012361
2 march, tue
tue200:00−5sw71395100 1.6 1007569
03:00−4sw71396100 3.3 1003566
06:00−1sw71297100 1.4 999489
09:000w61198100 3.3 998614
12:000w61099100 1.0 996583
15:000wnw61191100 2.4 996853
18:00−2wnw5109496 0.1 997352
21:00−4wnw5129194 0.3 998377
3 march, wed
wed300:00−6wnw5119354 0.0 998249
03:00−7wnw5109659 0.0 999243
06:00−7wnw5119599 0.1 1000370
09:00−6nw6119394 0.3 1002582
12:00−5nw6989100 0.1 1003682
15:00−5wnw6989100 0.3 1004870
18:00−7wnw51093100 0.1 1004680
21:00−8w51292100 0.2 1005343
4 march, thu
thu400:00−8wsw499694 0.1 1003264
03:00−9wsw489797 0.4 1002165
06:00−10wsw369898 0.1 100186
09:00−7sw489598 0.1 1000315
12:00−3ssw71194100 0.3 996701
15:00−2sw81396100 1.7 993856
18:00−1wsw81395100 1.3 990813
21:00−1wsw61293100 1.4 989733
5 march, fri
fri500:00−4w51387100 0.9 988547
03:00−9w8169099 0.9 991699
06:00−9nw81590100 0.2 996739
09:00−10nw7128994 0.2 1001583
12:00−8wnw698795 0.0 1004721
15:00−7wnw698364 0.0 1007843
18:00−10w359488 0.0 100985
21:00−11wnw359694 0.3 1012101